Powrót do katalogu

STARLINK-6229

AktywnyŁącznośćVLEO
NORAD 57093·PAYLOAD·🇺🇸 United States

Wystrzelony Jun 22, 2023 z Vandenberg Space Force Base

Loading…

Następne Przeloty (najbliższe 24 godziny)

TLE

ŚwieżeSource: CelesTrak SupGP

Epoka: Sep 15, 2026, 02:20 UTC

1 57093C 23088AX  26258.09770833  .00040963  00000+0  14837-2 0  2589
2 57093  43.0002 106.3861 0001381 266.9543 269.3576 15.27558047    11

Śledź STARLINK-6229 w czasie rzeczywistym z AllMySat

Download on the App Store